Location: Unspecified
(46.0725°N, 13.7344°E)
Time: 23:44:51
(UTC+02:00)

CZ-3 Stage 3 - Visible Passes

Search period start: 12 June 2024 00:00
Search period end: 22 June 2024 00:00
Orbit: 492 x 34626 km, 30.5° (Epoch: 11 June)

Date Brightness Start Highest point End Pass type
(mag) Time Alt. Az. Time Alt. Az. Time Alt. Az.
12 Jun 7.1 04:15:22 10° WSW 05:41:28 70° S 13:18:51 10° SSW visible
13 Jun 6.3 00:40:38 25° S 01:00:25 42° ESE 09:39:09 10° SE visible
15 Jun 7.1 03:54:34 10° WSW 05:10:33 69° S 12:58:31 10° SSW visible
16 Jun 6.2 00:20:03 24° S 00:38:33 40° ESE 09:16:37 10° SE visible
18 Jun 7.0 03:33:48 10° WSW 04:40:16 69° S 12:38:02 10° SSW visible
18 Jun 6.2 23:59:16 22° S 00:16:51 38° ESE 08:53:48 10° SE visible
21 Jun 7.0 03:13:02 10° WSW 04:11:20 68° SSE 12:17:25 10° SSW visible
